Flag Weather past 2 weeks in Regina, Saskatchewan, Canada

Now
9 °F

Snow flurries. Overcast.


Feels Like: -3 °F
Forecast: -6 / 4 °F
Wind: 7 mph from Northeast

Location: Regina Weather Station

Current Time: Nov 25, 2014 at 10:34:00 PM

Latest Report: Nov 25, 2014 at 9:00 PM


Visibility: 10 mi

Pressure: 30.31 "Hg

Humidity: 78%

Dew point: 3 °F

Location of ReginaLocation

Historic Weather in Regina — Graph

°F

Regina temperature yesterday

Maximum temperature yesterday: 28 °F (at 4:00 PM)
Minimum temperature yesterday: 7 °F (at 2:00 AM)
Average temperature yesterday: 17 °F

Past Weeks' High & Low Weather Summary

 TemperatureHumidityPressure
High45 °F (Nov 21, 3:00 PM)100% (Nov 21, 10:00 PM)30.84 "Hg (Nov 21, 10:00 PM)
Low-8 °F (Nov 14, 7:00 AM)57% (Nov 16, 2:00 PM)29.17 "Hg (Nov 22, 7:00 PM)
Average15 °F83%30.14 "Hg
* Reported Nov 10 9:00 PM — Nov 25 9:00 PM, Regina, Weather by CustomWeather, © 2014

Note: Actual official high and low records may vary slightly from our data, if they occured in-between our weather recording intervals... More about our weather records

Advertising

Regina weather history for previous 24 hours

 ConditionsComfort  
Time TempWeatherWind HumidityBarometerVisibility
9:00 PM
Nov 25
9 °FSnow flurries. Overcast.7 mph78%30.31 "Hg10 mi
8:00 PM9 °FSnow flurries. Overcast.10 mph85%30.28 "Hg6 mi
7:00 PM10 °FMostly cloudy.10 mph79%30.25 "Hg15 mi
6:00 PM12 °FPassing clouds.13 mph79%30.21 "Hg15 mi
5:00 PM14 °FPartly sunny.9 mph79%30.17 "Hg15 mi
4:00 PM18 °FPartly sunny.12 mph79%30.11 "Hg15 mi
3:00 PM19 °FMostly cloudy.9 mph79%30.05 "Hg15 mi
2:00 PM21 °FMostly cloudy.15 mph80%30.01 "Hg15 mi
1:00 PM21 °FLight snow. Overcast.17 mph80%29.95 "Hg10 mi
12:00 PM21 °FLight snow. Overcast.18 mph86%29.92 "Hg10 mi
11:00 AM21 °FSnow flurries. Ice fog.18 mph86%29.89 "Hg2 mi
10:00 AM21 °FIce fog.15 mph86%29.85 "Hg3 mi
9:00 AM23 °FSnow flurries. Overcast.15 mph86%29.82 "Hg2 mi
8:00 AM23 °FSnow flurries. Overcast.13 mph93%29.81 "Hg2 mi
7:00 AM23 °FSnow flurries. Overcast.14 mph93%29.82 "Hg1 mi
6:00 AM23 °FLight snow. Mostly cloudy.15 mph93%29.83 "Hg2 mi
5:00 AM21 °FLight snow. Ice fog.14 mph100%29.85 "Hg2 mi
4:00 AM21 °FIce fog.12 mph93%29.89 "Hg2 mi
3:00 AM21 °FIce fog.8 mph100%29.92 "Hg2 mi
2:00 AM21 °FIce fog.6 mph93%29.94 "Hg2 mi
1:00 AM21 °FIce fog.5 mph93%29.96 "Hg2 mi
12:50 AM21 °FIce fog.6 mph93%29.98 "Hg3 mi
12:00 AM19 °FIce fog.5 mph100%29.99 "Hg3 mi
11:00 PM
Nov 24
21 °FLow clouds.5 mph93%30.03 "Hg10 mi
10:00 PM21 °FLow clouds.7 mph93%30.04 "Hg15 mi
Weather by CustomWeather, © 2014

See weather overviewHow to use our weather pages